SCP
1 1 1 0 1 1 1 0 0 0 0 0 0 0 0 0 0 0 0 1 1 1 1 1 2 2 1 1 1 1 1 1 1 1 1 1 1 1 1 1 1 1 1
1 1 1 1 1 1 1 0 0 0 0 0 0 0 0 0 0 0 0 1 1 1 1 1 1 1 1 1 1 1 1 1 1 1 1 1 1 1 1 1 1 1 1
1 1 1 1 1 1 1 0 0 0 1 0 0 0 0 0 0 0 0 1 1 1 1 1 1 1 1 1 1 1 1 1 1 1 1 1 1 1 1 1 1 1 1
1 1 1 1 1 1 1 0 0 1 1 0 0 0 0 0 0 0 1 1 1 1 1 1 1 1 1 1 1 1 1 1 1 1 1 1 1 1 1 1 1 1 1
1 1 1 1 1 1 0 0 0 1 1 0 0 0 0 0 0 0 1 1 1 1 1 1 2 1 1 1 1 1 1 1 1 1 1 1 1 1 1 1 1 1 1
1 1 1 1 1 1 0 0 0 0 0 0 0 0 0 0 0 0 0 1 1 1 1 1 1 1 1 1 1 1 1 1 1 1 1 1 1 1 1 1 1 1 1
2 2 2 1 1 1 1 0 0 0 0 0 0 0 0 0 0 0 0 0 1 1 1 1 1 1 1 1 1 1 1 1 1 1 1 1 1 1 1 1 1 1 1
3 3 2 2 1 1 1 1 0 0 0 0 0 0 0 0 0 0 0 0 0 1 1 1 1 1 1 1 1 1 1 1 1 1 1 1 1 1 1 1 1 1 1
3 3 3 2 2 2 1 1 1 1 1 1 1 1 1 1 1 0 0 0 0 0 1 1 1 1 1 1 1 1 1 1 1 1 1 1 1 1 1 1 1 1 1
3 3 3 3 2 2 2 1 1 1 1 1 1 2 2 2 1 1 1 0 0 0 1 1 1 1 1 1 1 1 1 1 1 1 1 1 1 1 1 1 1 1 1
3 3 3 3 2 2 2 2 1 1 2 2 2 2 3 2 2 1 1 1 1 0 0 1 1 1 1 1 1 1 1 1 1 1 1 1 1 1 1 1 1 1 1
2 3 3 3 2 2 2 2 2 2 2 2 3 3 3 3 2 2 1 1 1 0 0 1 1 1 1 1 1 1 1 0 0 1 1 1 1 1 1 1 1 1 1
3 3 3 3 2 2 2 2 2 3 3 3 3 3 3 3 2 2 2 1 1 0 0 0 1 1 1 1 1 1 0 0 0 0 0 1 0 0 1 1 1 1 1
3 3 3 3 2 2 2 3 3 3 3 3 4 4 4 3 2 2 2 1 1 0 0 0 0 0 0 0 0 0 0 0 0 0 0 0 0 0 0 0 1 1 1
3 3 3 3 2 2 2 2 3 3 4 4 4 4 4 3 2 2 1 1 1 0 0 0 0 1 1 1 0 0 0 0 0 0 0 0 0 0 0 0 0 0 0
3 3 3 3 2 2 2 2 3 3 3 4 4 4 3 2 2 1 1 1 1 0 0 0 0 0 1 1 1 0 0 0 0 0 0 0 0 0 0 0 0 0 0
4 3 3 3 2 2 2 2 2 2 3 3 3 3 3 2 2 1 1 1 1 1 0 0 0 0 1 1 0 0 0 0 1 0 0 0 0 0 0 0 0 0 0
5 5 4 3 3 3 3 3 2 2 2 2 3 3 2 2 2 1 1 1 1 1 1 0 0 0 0 0 0 0 0 0 1 1 0 0 0 0 0 0 0 0 0
5 5 5 4 4 4 3 3 3 2 2 2 2 2 2 2 1 1 1 1 1 1 1 1 0 0 0 0 0 0 0 0 0 0 0 0 0 0 0 0 0 0 0
5 5 5 5 5 4 4 3 3 3 2 2 2 2 2 2 1 1 1 1 1 1 1 1 1 1 1 0 0 0 0 0 0 0 0 0 0 0 0 0 0 0 0
5 5 4 4 4 4 4 4 3 3 2 2 2 2 2 1 1 1 1 1 1 1 1 1 1 1 1 1 1 1 1 1 1 1 1 1 1 0 0 0 0 0 0
5 5 5 4 4 4 4 4 3 3 2 2 1 1 1 1 1 1 1 1 1 1 1 1 1 1 1 1 1 1 1 1 1 1 1 1 1 1 1 0 0 0 0
5 6 6 5 5 4 3 3 3 3 2 2 1 1 1 1 1 1 1 1 1 1 1 1 1 1 1 1 1 1 1 2 2 1 1 1 1 1 1 1 0 0 0
5 5 6 6 5 4 3 2 2 2 2 2 1 1 1 1 1 1 1 1 1 1 1 1 1 1 1 1 1 1 1 1 2 1 1 1 1 1 1 1 0 0 0
4 4 5 6 6 5 3 2 2 2 3 2 1 1 1 1 1 1 2 2 2 2 1 1 1 1 1 1 1 1 1 1 1 1 1 1 1 0 0 0 0 0 0
3 3 4 5 6 5 3 2 2 3 3 2 1 1 1 1 1 1 2 2 2 2 2 2 1 1 0 0 0 0 1 1 1 1 1 1 1 0 0 0 0 0 0
Wind_Speed
1 1 1 1 1 1 1 1 1 1 1 1 2 2 3 3 4 3 3 9 10 9 10 10 10 10 11 11 11 11 11 10 9 9 9 9 8 8 8 8 7 7 6
2 1 1 1 1 1 1 2 2 1 1 1 1 1 3 3 4 4 3 6 9 9 9 10 10 10 11 11 11 11 11 10 10 9 8 8 7 7 7 7 7 7 6
2 2 1 1 1 1 1 1 1 1 1 1 1 1 2 2 3 4 4 3 4 7 9 9 9 9 9 10 11 11 11 10 9 8 8 8 7 7 6 6 6 6 6
3 2 1 1 1 1 1 2 1 1 1 1 1 1 1 1 2 4 3 3 3 3 5 8 8 8 9 9 10 10 10 9 9 8 8 8 7 6 6 7 6 6 6
3 2 1 1 1 1 1 2 2 2 1 1 1 1 1 1 1 3 3 4 3 3 3 5 7 8 9 10 10 10 9 9 9 9 9 8 8 7 6 6 6 6 6
2 2 2 1 2 2 1 1 2 1 1 1 1 1 1 1 1 1 3 3 3 4 4 3 3 4 7 8 8 9 9 9 9 9 9 8 8 7 7 7 6 6 6
3 3 2 2 2 2 2 2 2 2 1 1 2 2 3 2 1 0 1 2 2 3 3 3 2 2 2 5 6 7 8 8 9 9 8 8 7 7 6 6 6 6 5
3 3 3 2 2 2 2 2 2 1 0 1 2 2 2 3 2 1 0 1 2 2 2 3 3 2 2 2 3 6 6 7 8 9 8 7 7 6 6 6 5 5 6
3 3 3 3 2 3 2 2 3 3 2 0 1 3 3 2 1 2 1 0 1 2 2 2 3 3 3 2 2 5 6 6 7 7 8 7 7 6 6 6 6 6 6
3 3 3 3 2 2 2 3 2 2 3 2 0 1 2 3 2 0 2 1 0 1 2 2 2 3 3 3 3 5 6 6 6 7 8 7 7 7 7 7 7 7 6
2 3 3 3 2 2 2 2 2 2 2 2 1 1 1 1 2 2 1 1 1 1 1 2 2 2 3 3 3 5 6 6 6 6 6 7 7 7 7 7 7 7 7
1 2 3 2 2 2 2 2 2 2 1 1 1 1 2 1 1 2 2 1 1 1 1 1 2 2 3 3 5 7 7 6 6 6 6 6 6 7 7 7 7 6 6
1 2 3 2 2 2 2 1 2 2 1 1 1 1 1 2 2 2 2 1 1 1 1 1 2 2 3 3 3 7 7 7 7 6 6 6 6 6 6 6 6 6 5
2 3 3 3 2 2 2 2 1 1 1 1 1 1 1 1 1 2 3 3 1 1 1 2 1 3 3 3 4 7 5 7 7 7 7 7 6 6 6 5 5 5 5
2 2 3 3 3 3 3 3 2 1 1 1 1 1 1 1 1 1 2 4 4 2 2 3 2 3 3 3 5 4 4 7 8 8 8 8 7 7 7 6 6 5 5
2 3 2 3 3 3 3 3 2 1 1 1 1 1 1 1 1 1 2 2 2 4 3 3 3 3 3 4 5 4 5 7 8 8 8 8 8 8 8 7 7 6 6
3 3 3 3 3 2 3 3 2 2 2 2 1 1 1 1 1 1 1 1 2 2 2 3 2 1 2 3 2 3 3 3 4 8 8 8 8 8 8 8 8 7 7
2 3 3 3 3 3 3 3 3 3 3 3 2 2 2 1 1 1 1 1 2 2 3 3 2 1 2 3 3 3 3 4 3 7 9 9 9 9 9 9 9 9 8
3 3 3 3 3 3 3 3 3 3 3 3 3 3 2 2 1 1 1 1 2 2 2 3 2 1 1 1 1 2 3 2 4 5 8 9 9 10 10 10 10 9 9
3 3 3 3 3 3 2 2 2 3 3 2 3 3 3 3 3 2 2 2 2 1 1 2 1 1 1 1 1 1 2 2 3 3 3 4 6 8 9 9 10 10 10
3 3 3 3 2 2 2 2 2 3 2 2 2 2 3 3 3 3 2 2 2 2 2 2 2 1 1 1 2 2 2 2 2 2 2 2 2 3 5 8 10 11 11
2 2 3 3 3 3 3 4 3 3 3 3 3 2 2 2 3 3 3 3 4 4 3 3 2 3 3 3 2 2 2 1 2 2 2 2 2 3 4 4 8 10 11
2 2 3 3 3 4 5 5 5 3 3 3 3 3 2 2 2 2 2 3 3 5 6 5 5 5 4 4 4 3 3 3 4 3 2 2 2 4 4 5 9 10 10
3 3 3 3 3 5 6 6 5 4 3 4 4 4 4 3 2 2 1 1 2 3 4 4 5 6 5 5 5 5 5 3 2 2 2 3 2 3 3 3 7 10 10
2 3 3 3 4 5 6 7 5 3 3 4 4 4 4 4 5 4 3 2 3 4 4 5 6 6 6 6 4 2 2 2 2 3 2 2 2 2 2 3 4 7 8
3 3 3 4 4 5 6 7 6 3 3 3 3 3 5 6 6 6 4 3 3 4 3 3 3 4 4 5 6 5 5 3 2 3 3 3 2 1 1 2 2 2 3
Wind_Direction
158 165 166 153 160 151 154 158 154 146 161 170 174 170 171 170 166 172 176 181 181 182 183 184 186 188 187 186 185 183 182 184 186 187 189 189 189 193 193 195 192 192 191
159 157 143 144 158 166 155 157 158 152 153 145 137 152 151 157 165 164 172 183 184 184 185 187 186 189 191 191 188 187 189 189 190 191 195 195 195 200 200 202 201 197 196
165 164 150 168 187 168 143 126 109 116 138 130 125 142 142 153 160 169 176 178 186 188 186 187 187 191 194 193 194 193 194 195 190 188 188 188 192 195 194 198 201 198 200
152 143 151 181 177 148 137 132 126 115 109 104 94 115 120 132 154 167 170 171 175 183 190 190 193 196 197 196 195 195 192 189 185 185 183 186 190 193 195 200 202 198 198
151 141 146 166 143 127 132 145 121 125 120 112 121 107 107 120 163 165 168 172 172 178 187 196 201 205 202 200 197 196 193 189 188 190 191 192 194 195 199 202 204 203 203
147 148 146 141 127 118 113 125 131 129 140 145 115 84 49 58 92 140 177 164 172 185 190 196 204 211 207 202 197 196 193 191 188 190 193 195 198 201 206 205 203 204 205
160 153 148 139 135 135 155 158 133 126 105 113 87 43 14 24 54 321 131 139 170 182 176 189 193 190 199 192 188 188 194 194 192 193 194 195 197 198 199 200 205 204 205
167 163 156 156 151 141 144 143 132 126 139 126 122 103 34 359 353 15 95 158 175 170 178 192 192 178 171 168 179 189 194 196 196 193 191 189 191 194 196 194 193 198 206
168 166 163 160 159 154 162 169 162 150 159 215 150 139 143 202 293 335 321 166 164 173 194 188 183 178 175 171 184 192 189 193 194 194 192 193 196 196 199 202 203 203 207
171 164 156 158 162 156 166 182 170 164 150 174 235 181 163 158 148 316 329 325 207 169 185 174 164 170 173 172 182 184 185 189 190 197 199 200 203 204 206 210 213 216 217
174 165 162 162 170 173 180 177 157 145 150 164 165 157 112 103 135 149 228 298 329 286 189 174 164 171 176 176 187 191 188 187 190 196 199 205 211 214 216 217 219 222 224
186 187 175 171 175 176 184 181 159 152 159 152 152 151 157 160 176 155 177 210 250 290 258 185 180 186 191 190 197 186 184 187 191 196 199 206 214 218 219 219 222 224 222
203 212 192 186 187 185 180 170 161 158 160 164 185 202 194 201 177 160 150 176 197 284 297 261 218 200 200 195 200 189 193 194 196 201 204 211 218 217 215 216 218 216 216
205 199 184 180 177 172 177 164 156 167 149 173 195 205 213 224 179 165 161 152 144 311 294 263 254 220 211 199 209 194 203 201 202 205 208 210 213 214 210 208 211 211 213
197 185 177 177 177 168 166 155 148 168 152 166 193 208 222 251 192 184 169 162 158 183 251 252 244 237 215 205 207 198 204 211 211 213 212 211 210 209 207 206 208 210 210
191 179 183 183 181 172 165 159 162 176 165 202 196 179 230 238 211 218 184 177 165 166 210 239 233 230 213 212 202 198 209 208 215 217 215 214 214 212 210 209 212 213 212
183 184 191 188 184 177 171 163 171 177 183 217 235 192 212 198 210 244 203 182 178 161 188 252 249 227 199 219 205 207 214 211 218 220 218 217 220 220 216 215 215 216 217
190 189 185 184 192 188 178 175 187 185 185 205 223 196 210 197 216 236 200 200 202 189 174 213 248 220 217 215 204 210 216 217 218 221 220 221 222 223 220 220 220 219 220
186 188 182 184 190 191 187 187 190 193 198 208 204 199 214 189 220 245 226 213 220 215 177 179 224 225 231 212 183 231 232 232 226 225 224 227 226 225 225 224 221 218 219
186 192 194 189 188 191 194 193 191 192 196 205 209 207 208 196 206 221 232 223 210 198 184 180 213 232 236 237 163 207 248 246 244 236 224 220 224 228 227 224 223 220 219
201 197 190 186 186 189 198 190 192 190 196 212 227 222 221 208 205 207 210 209 196 193 193 195 215 226 233 200 212 208 219 246 265 231 216 235 218 228 231 231 228 223 220
206 184 186 188 201 220 206 184 176 188 193 201 218 232 233 213 218 215 215 211 198 196 203 202 207 212 227 221 210 201 187 188 269 243 189 243 207 233 239 229 229 224 221
203 205 205 201 217 230 214 201 196 189 195 201 206 216 232 233 216 223 240 247 246 233 210 198 204 216 214 213 195 200 202 209 230 229 178 245 231 241 241 240 230 224 221
205 212 214 217 224 235 220 211 205 204 211 213 213 211 212 226 230 202 217 274 279 271 246 219 214 222 220 212 199 199 203 219 262 253 177 215 234 244 257 248 239 227 220
222 222 218 219 227 242 226 215 199 202 217 229 225 217 209 211 221 193 183 227 275 288 284 257 237 232 224 213 193 159 170 177 257 262 203 188 224 249 264 258 248 228 222
220 220 233 233 230 239 235 223 203 196 213 235 244 233 219 216 217 196 189 199 239 262 280 304 280 262 243 231 208 192 191 196 221 251 221 181 207 186 273 268 248 229 218